Regional Weather Roundup
Issued by NWS

Home | Current Version | Previous Version | Graphics & Text | Print | Product List | Glossary On
Versions: 1 2 3 4 5 6 7 8 9 10 11 12 13 14 15 16 17 18 19 20 21 22 23 24 25 26 27 28 29 30 31 32 33 34 35 36 37 38 39 40 41 42 43 44 45 46 47 48 49 50
000
ASUS45 KSLC 030110
RWRUT

UTAH REGIONAL WEATHER ROUNDUP
NATIONAL WEATHER SERVICE SALT LAKE CITY UT
700 PM MDT TUE JUN 02 2015

UTZ001>011-023>025-030200-

NORTHERN UTAH

CITY           SKY/WX    TMP DP  RH WIND       PRES   REMARKS
BRIGHAM CITY   PTSUNNY   76  42  29 S5        29.93S
HILL AFB       MOSUNNY   74  37  26 NW8       29.95F
LOGAN          SUNNY     73  53  49 N8        29.93S
OGDEN          MOSUNNY   74  41  30 NW7       29.92F
PROVO AIRPORT  MOSUNNY   81  43  26 NW12      29.91S
SALT LAKE CITY MOSUNNY   79  44  28 N8        29.90F
VERNAL         SUNNY     80  27  14 SE7       29.90F
WENDOVER       MOSUNNY   79  36  21 E3        29.90F
HEBER CITY     SUNNY     77  32  19 W13       29.97R
WEST JORDAN    SUNNY     75  43  31 N8        29.94F

$$

UTZ012>022-026-027-030200-

SOUTHERN/CENTRAL UTAH

CITY           SKY/WX    TMP DP  RH WIND       PRES   REMARKS
BLANDING       SUNNY     81  21  11 SW9G21    30.06F
BRYCE CANYON   SUNNY     71  20  14 SW12      30.11F
CEDAR CITY     SUNNY     77  18  11 SW16      29.97F
DELTA          SUNNY     84  19   9 SW6       29.89S
HANKSVILLE     SUNNY     88  14   6 SW10G20   29.85F
MILFORD        SUNNY     81  16   9 SW18G25   29.91F
MOAB/CYNLANDS  SUNNY     87  17   7 SW8       29.85F
PRICE          SUNNY     82  21  10 W14       29.94S
ST GEORGE      CLEAR     91  28  10 W14       29.82F
KANAB          SUNNY     82  21  10 SW9       29.96F

$$

REGIONAL REPORTS     COLORADO/ARIZONA

CITY           SKY/WX    TMP DP  RH WIND       PRES   REMARKS
CRAIG, CO      SUNNY     74  38  27 SW8       29.98F
GRAND JUNCTION SUNNY     84  14   7 NW14      29.88F
RIFLE          SUNNY     80  32  17 W9        29.93S
MONTROSE       SUNNY     82  18   9 SW15      30.00S
CORTEZ         SUNNY     82  21  10 SW7       30.02F
PAGE, AZ       SUNNY     92  13   5 N8        29.85F
GRAND CANYON   SUNNY     76  10   8 SW15G25   30.09F
KINGMAN        SUNNY     87  17   7 SW14G23   29.89F
FLAGSTAFF      SUNNY     71  22  15 SW16G28   30.15S

$$

REGIONAL REPORTS    NEVADA/IDAHO/WYOMING

CITY           SKY/WX    TMP DP  RH WIND       PRES   REMARKS
LAS VEGAS, NV  SUNNY     94  17   6 S14       29.72F
ELY            MOSUNNY   77  33  20 S9        29.98F
ELKO           SUNNY     75  27  17 W10       29.97F
POCATELLO, ID  MOSUNNY   71  43  36 W14       29.96F
BURLEY         SUNNY     72  42  34 NW9       29.93F
EVANSTON, WY   MOSUNNY   67  33  28 W21G30    30.07S
ROCK SPRINGS   MOSUNNY   71  27  19 W21G28    30.02R
KEMMERER       SUNNY     66  32  28 W20G30    30.07S

$$



USA.gov is the U.S. government's official web portal to all federal, state and local government web resources and services.